Weather Roundup
Issued by NWS Corpus Christi, TX

Home | Current Version | Previous Version | Text Only | Print | Product List | Glossary Off
Versions: 1 2 3 4 5 6 7 8 9 10 11 12 13 14 15 16 17 18 19 20 21 22 23 24 25 26 27 28 29 30 31 32 33 34 35 36 37 38 39 40 41 42 43 44 45 46 47 48 49 50

744
ASUS44 KCRP 180710
HRRCRP

SOUTH TEXAS REGIONAL WEATHER ROUNDUP
NATIONAL WEATHER SERVICE CORPUS CHRISTI TX
200 AM CDT FRI AUG 18 2017


TXZ229>244-180800-
...CORPUS CHRISTI AREA OBSERVATIONS...

CITY           SKY/WX    TMP DP  RH WIND       PRES   REMARKS
CORPUS CHRISTI PTCLDY    80  79  96 SE8       30.01S
NAS CORPUS CHR CLEAR     84  80  88 SE10      30.01S HX  97
ROCKPORT         N/A     84  77  79 SE8       30.00F HX  94
KINGSVILLE NAS PTCLDY    81  80  97 SE8       30.00F HX  91
ALICE          CLEAR     78  76  93 SE7       30.00F
FALFURRIAS     CLEAR     80  77  90 SE7       30.00F
$$

...VICTORIA AREA OBSERVATIONS...

CITY           SKY/WX    TMP DP  RH WIND       PRES   REMARKS
VICTORIA       CLEAR     78  75  90 SE7       30.02S
BEEVILLE       FAIR     N/A N/A N/A SE3       30.02S
PLEASANTON     CLEAR     79  74  84 S3        30.03S
SAN ANTONIO    CLEAR     80  74  81 SE16      30.04F
$$

...LAREDO AREA OBSERVATIONS...

CITY           SKY/WX    TMP DP  RH WIND       PRES   REMARKS
LAREDO         CLEAR     84  73  69 SE13      29.99F HX  90
COTULLA        CLEAR     81  72  74 SE10      30.00F
DEL RIO        PTCLDY    85  69  58 E9        29.97S
MCALLEN        MOCLDY    84  78  82 SE13      30.00S HX  95
HEBBRONVILLE   MOCLDY    79  73  83 S8        30.03S
$$

...OTHER TEXAS OBSERVATIONS...

CITY           SKY/WX    TMP DP  RH WIND       PRES   REMARKS
BROWNSVILLE    PTCLDY    81  80  97 SE5       30.01F HX  91
HOUSTON        CLEAR     82  76  81 S6        30.01F
COL. STATION   CLEAR     80  72  76 S6        30.00F
AUSTIN         CLEAR     80  74  81 S6        30.01F
WACO           PTCLDY    74  72  93 N5        30.00F
FORT WORTH     CLOUDY    78  71  79 SE3       29.98S
WICHITA FALLS  CLEAR     73  69  87 N3        29.99S
LUBBOCK        PTCLDY    74  65  73 S12       30.10S
EL PASO        PTCLDY    79  60  52 SE10      30.10R
$$

...MARINE OBSERVATIONS...

STATION/POSITION TIME  SKY/WX   TEMP    WIND        PRES    VSBY  WAVE   SWELL
                                AIR SEA DIR/SP/G                  HT/PER HT/PER
                 (UTC)          (F)     (DEG/KT/KT) (MB)    (MI)  (FT/S) (FT/S)
PORT ARANSAS     0600            83 87  140/ 10/ 11 1016.4F
BUOY 90 E PORT A 0650            86 85  140/ 10/ 12 1016.7S         3/ 6   2/ 6
BUOY 45 SE BAFFI 0550            85     150/ 14/ 16 1015.6          4/ 6   2/11
BUOY 200 E PT IS 0650            86 87  120/ 14/ 16 1016.9S         3/ 6
BUOY 15 E GALVES 0550            86 87  190/ 12/ 14 1016.7          3/ 7   2/ 7
$$




USA.gov is the U.S. government's official web portal to all federal, state and local government web resources and services.